Location: Dodgeville, WI 53533, USA
(43.0344°N, 90.0900°W)
Time: 19:35:34
(UTC-05:00)

ISS - Visible Passes

Search period start: 18 May 2021 00:00
Search period end: 28 May 2021 00:00
Orbit: 417 x 422 km, 51.6° (Epoch: 18 May)

Date Brightness Start Highest point End Pass type
(mag) Time Alt. Az. Time Alt. Az. Time Alt. Az.
18 May -1.0 00:30:38 10° NW 00:33:11 20° N 00:34:28 16° NE visible
18 May -0.7 02:07:19 10° NW 02:07:22 10° NW 02:07:22 10° NW visible
18 May -1.5 22:04:58 10° W 22:07:55 27° NNW 22:10:53 10° NE visible
18 May -0.9 23:43:02 10° NW 23:45:30 19° N 23:47:59 10° NE visible
19 May -1.1 01:19:55 10° NW 01:21:03 18° NNW 01:21:03 18° NNW visible
19 May -2.0 21:17:11 10° W 21:20:19 36° NNW 21:23:29 10° NE visible
19 May -0.9 22:55:21 10° NW 22:57:50 19° N 23:00:18 10° NE visible
20 May -1.4 00:32:31 10° NW 00:34:54 25° N 00:34:54 25° N visible
20 May -1.0 22:07:34 10° WNW 22:10:09 20° N 22:12:44 10° NE visible
20 May -1.4 23:45:05 10° NW 23:47:48 22° NNE 23:48:49 19° NE visible
21 May -0.7 01:21:40 10° NW 01:21:45 11° NW 01:21:45 11° NW visible
21 May -1.2 21:19:44 10° WNW 21:22:29 23° NNW 21:25:14 10° NE visible
21 May -1.1 22:57:34 10° NW 23:00:07 20° N 23:02:40 10° NE visible
22 May -1.4 00:34:15 10° NW 00:35:42 22° NW 00:35:42 22° NW visible
22 May -1.1 22:09:58 10° NW 22:12:26 19° N 22:14:54 10° NE visible
22 May -2.1 23:46:51 10° NW 23:49:42 33° NNE 23:49:42 33° NNE visible
23 May -1.1 21:22:16 10° NW 21:24:44 19° N 21:27:13 10° NE visible
23 May -1.8 22:59:25 10° NW 23:02:20 26° NNE 23:03:43 20° NE visible
24 May -1.0 00:36:02 10° WNW 00:36:39 14° WNW 00:36:39 14° WNW visible
24 May -1.5 22:11:58 10° NW 22:14:41 22° NNE 22:17:24 10° ENE visible
24 May -2.2 23:48:34 10° NW 23:50:42 35° NW 23:50:42 35° NW visible
25 May -1.3 21:24:27 10° NW 21:27:00 20° N 21:29:33 10° ENE visible
25 May -3.0 23:01:07 10° NW 23:04:23 46° NNE 23:04:45 44° NE visible
26 May -2.3 22:13:43 10° NW 22:16:49 33° NNE 22:18:51 17° ENE visible
26 May -1.6 23:50:29 10° WNW 23:51:47 20° WNW 23:51:47 20° WNW visible
27 May -1.9 21:26:17 10° NW 21:29:11 26° NNE 21:32:05 10° ENE visible
27 May -3.6 23:02:54 10° WNW 23:05:55 64° W 23:05:55 64° W visible
